Miscellaneous Local Product
Issued by NWS Hastings, NE

Home | Current Version | Previous Version | Text Only | Print | Product List | Glossary Off
Versions: 1 2 3 4 5 6 7 8 9 10 11 12 13 14 15 16 17 18 19 20 21 22 23 24 25 26 27 28 29 30 31 32 33 34 35 36 37 38 39 40 41 42 43 44 45 46 47 48 49 50

000
AXUS43 KGID 221902
MISGRI

GID CWA HOURLY WEATHER ROUNDUP
NATIONAL WEATHER SERVICE HASTINGS NE
200 PM CDT TUE AUG 22 2017

NOTE: "FAIR" INDICATES FEW OR NO CLOUDS BELOW 12,000 FEET WITH NO
SIGNIFICANT WEATHER AND/OR OBSTRUCTIONS TO VISIBILITY.

...SOUTH CENTRAL NEBRASKA...

CITY           SKY/WX    TMP DP  RH WIND       PRES   REMARKS
GRAND ISLAND   SUNNY     75  47  36 N8        30.24S
HASTINGS       SUNNY     74  49  41 VRB6      30.25S
KEARNEY        SUNNY     74  52  46 VRB3      30.26F
ORD            SUNNY     75  43  31 E7        30.23S
YORK           SUNNY     73  50  43 N10G17    30.23S
AURORA         SUNNY     73  50  44 N8        30.24R
LEXINGTON      SUNNY     74  52  46 CALM      30.27S
HOLDREGE       SUNNY     72  50  46 E8        30.27S
HEBRON         SUNNY     79  52  39 NE9       30.20F

...NEBRASKA PANHANDLE...

CITY           SKY/WX    TMP DP  RH WIND       PRES   REMARKS
CHADRON        SUNNY     81  42  25 S14G21    30.21F
ALLIANCE       SUNNY     77  46  33 S12       30.27F
SCOTTSBLUFF    SUNNY     81  49  32 S14       30.24F
SIDNEY         SUNNY     78  45  30 S14G22    30.30F

...WESTERN AND NORTH CENTRAL NEBRASKA...

CITY           SKY/WX    TMP DP  RH WIND       PRES   REMARKS
VALENTINE      SUNNY     78  41  26 NW3       30.24F
AINSWORTH      SUNNY     72  48  42 CALM      30.26S
ONEILL         SUNNY     72  48  42 N5        30.24S
BROKEN BOW     SUNNY     75  47  36 SE5       30.26F
IMPERIAL       SUNNY     78  44  29 SE12G17   30.28F
NORTH PLATTE   SUNNY     77  53  43 E6        30.26F
MCCOOK         SUNNY     79  50  36 SE7       30.26F

...EASTERN NEBRASKA...

CITY           SKY/WX    TMP DP  RH WIND       PRES   REMARKS
NORFOLK        SUNNY     73  52  47 N12       30.20F
SO SIOUX CITY  SUNNY     73  52  47 N12       30.17F
TEKAMAH        SUNNY     74  50  42 N7        30.18S
COLUMBUS       SUNNY     73  54  51 N9        30.22S
ALBION         SUNNY     73  51  45 N7        30.23S
OMAHA EPPLEY   MOSUNNY   76  47  35 N14       30.17S
OFFUTT AFB     SUNNY     76  44  31 NW8       30.17S
MILLARD        SUNNY     76  48  37 N7        30.18S
LINCOLN        SUNNY     76  51  41 NE10      30.21R
NEBRASKA CITY  SUNNY     74  52  45 N7        30.18S
BEATRICE       SUNNY     76  54  46 N9        30.19S
FALLS CITY     SUNNY     75  53  46 N15       30.15R

...NORTHERN KANSAS...

CITY           SKY/WX    TMP DP  RH WIND       PRES   REMARKS
GOODLAND       SUNNY     74  57  55 E8        30.29F
HILL CITY      SUNNY     82  49  31 E12G22    30.23F
NORTON         CLEAR     79  41  25 NE9       30.24
PHILLIPSBURG   SUNNY     82  45  26 NE9       30.22F
SMITH CENTER   MOSUNNY   79  52  38 N8G18     30.22F
HAYS           SUNNY     81  56  42 E16G23    30.20F
RUSSELL        SUNNY     83  54  36 NE15G24   30.18S
CONCORDIA      SUNNY     81  51  35 N13       30.18S
SALINA         SUNNY     85  54  34 NE15G24   30.15F
TOPEKA         PTSUNNY   78  67  68 N9        30.13S



USA.gov is the U.S. government's official web portal to all federal, state and local government web resources and services.